Wind_Speed
13 13 12 12 12 11 10 9 8 7 6 6 5 5 4 4 4 2 3 3 3 3 3 2 2 1 1 1 2 4 5 5 5 5 5 5 5 4 4 3 3 2 1 2 1 1 1 0 1
12 12 12 13 11 8 9 9 7 7 7 6 6 5 5 5 4 3 2 2 3 3 3 3 2 3 2 2 3 4 5 5 4 4 5 5 5 4 3 3 3 2 1 2 1 0 1 1 1
12 12 14 13 9 8 9 8 7 7 7 7 7 6 5 5 5 3 2 2 2 3 3 3 3 4 3 4 4 4 4 4 3 3 4 4 4 3 3 3 2 1 1 1 1 1 1 2 2
11 13 13 10 8 9 8 8 8 8 7 7 7 6 6 6 5 4 4 2 3 3 3 3 3 4 4 5 4 4 4 3 2 2 2 2 2 2 2 1 1 1 1 1 0 1 1 1 2
11 12 10 7 8 8 9 9 8 8 8 8 7 7 6 6 5 5 4 3 3 3 3 3 3 3 4 4 4 3 3 2 1 1 1 2 1 0 1 1 1 1 1 1 2 2 2 2 3
13 10 9 7 8 9 9 8 7 8 8 8 8 7 7 6 5 5 4 4 3 3 3 3 3 4 4 3 3 3 3 3 3 2 1 1 0 1 1 1 1 2 3 2 2 2 2 2 2
11 9 9 7 8 8 7 7 7 8 8 8 8 7 7 6 5 5 5 4 4 3 3 3 3 3 4 3 3 3 3 3 3 3 2 2 2 1 1 1 2 3 3 3 3 4 3 2 2
9 8 8 7 8 8 7 7 8 8 8 8 8 8 8 7 6 5 5 5 5 4 4 4 3 3 3 3 3 3 3 4 4 3 3 3 3 3 3 2 3 3 4 4 4 5 3 3 3
9 7 7 7 7 7 6 7 7 8 9 9 8 8 8 7 7 6 6 6 5 5 4 4 4 4 4 4 3 3 3 4 4 4 3 3 4 4 3 3 4 4 4 5 5 5 5 4 3
7 5 5 5 7 7 7 8 9 9 9 9 8 8 8 8 7 6 6 6 6 5 5 5 4 4 3 3 3 3 4 4 4 4 4 4 4 4 4 4 4 5 5 4 4 5 4 3 3
4 3 5 6 7 8 8 9 9 9 9 9 9 8 8 8 7 6 6 5 5 6 5 5 5 4 4 3 3 3 4 4 4 5 5 5 5 4 4 4 5 5 4 4 4 4 4 4 4
5 4 4 5 6 7 8 8 8 9 9 9 9 8 8 8 8 7 6 5 5 5 5 5 5 5 5 5 4 4 4 5 5 5 6 6 5 5 5 5 5 5 5 5 4 5 5 3 4
3 2 3 5 5 6 8 9 8 9 9 9 9 8 8 8 8 8 7 6 6 5 5 5 6 6 5 5 5 5 5 5 5 6 6 7 6 6 6 6 6 6 5 5 5 5 5 5 5
3 2 3 5 6 7 8 8 9 9 8 9 8 8 9 9 8 8 7 7 7 6 6 5 6 6 6 5 5 5 5 5 6 6 7 7 7 7 6 7 7 7 6 5 5 5 5 5 5
4 1 3 5 7 8 7 7 9 9 9 9 9 9 10 9 9 8 8 8 7 7 6 6 6 6 6 5 5 5 5 6 6 7 7 8 7 7 7 7 7 7 7 6 5 5 5 6 6
3 2 3 4 5 8 8 7 8 9 9 9 8 8 9 9 9 8 8 8 8 8 7 7 6 6 6 6 6 6 6 6 6 7 7 7 7 7 8 8 8 8 6 6 6 6 6 7 7
1 3 4 3 3 6 7 7 8 10 9 8 8 8 7 8 8 8 8 8 8 8 8 8 7 6 6 6 6 7 7 7 7 7 7 8 7 7 8 8 9 8 7 7 6 7 8 8 7
2 3 4 3 3 5 7 7 6 8 10 8 7 7 7 7 8 8 8 8 8 8 8 8 7 7 7 7 7 7 7 7 7 7 7 8 8 8 8 8 8 8 7 7 7 8 8 8 8
4 4 6 5 4 6 7 8 7 8 10 8 8 7 6 6 7 8 8 8 8 8 8 8 8 8 8 8 7 7 8 8 8 8 9 8 8 9 8 8 8 8 7 8 8 8 8 8 8
6 7 7 7 7 7 8 9 10 8 9 7 7 7 7 6 7 8 8 8 8 9 9 8 8 8 8 8 8 8 8 9 9 9 9 9 9 9 9 8 8 8 8 9 9 9 8 9 9
9 9 8 8 9 8 8 10 12 10 10 9 8 8 7 7 7 7 8 9 9 9 9 9 9 8 8 8 8 9 9 9 9 10 9 9 9 9 9 8 8 8 9 9 10 10 9 10 10
9 10 10 10 10 10 8 10 13 12 13 11 8 9 10 8 8 8 8 9 9 9 9 9 9 9 9 9 9 9 9 9 9 10 9 10 9 9 9 9 9 10 10 11 11 11 11 11 11
11 10 10 10 10 11 10 10 14 13 12 13 10 10 11 10 10 10 9 10 9 9 9 9 9 9 9 9 9 9 9 9 9 9 9 9 9 9 10 10 11 11 11 12 12 11 12 12 12
11 10 9 10 11 14 11 10 13 13 13 13 13 10 12 12 11 11 11 10 10 10 10 10 10 10 10 10 10 10 10 10 10 11 11 11 11 11 11 12 12 12 13 13 13 12 13 13 13
12 12 12 13 14 14 11 12 13 14 12 12 12 12 12 12 11 12 12 12 11 11 11 11 11 10 10 11 11 12 12 12 12 12 12 13 13 13 12 12 12 13 13 14 13 13 14 15 15
14 13 12 12 12 12 11 11 13 14 13 13 13 13 13 12 12 12 12 12 12 12 12 12 11 11 11 12 12 13 13 13 13 14 14 14 14 14 13 13 14 14 14 14 14 15 16 16 16
14 14 14 14 12 13 13 12 13 16 15 14 14 13 13 13 13 13 13 13 13 13 13 12 12 12 12 12 13 14 14 15 15 14 14 14 15 14 14 15 15 15 15 15 15 16 16 17 17
16 14 13 14 14 14 14 13 15 17 16 15 16 14 14 14 14 14 14 14 14 14 14 14 13 13 13 14 14 15 15 15 15 15 15 15 15 15 15 15 15 16 16 17 17 17 18 19 19
15 16 16 15 15 15 15 13 15 16 17 17 18 16 15 15 15 16 15 15 16 15 15 15 15 15 15 15 15 16 16 16 16 16 16 17 16 16 15 16 16 17 17 18 19 19 19 20 20
17 17 16 17 16 15 16 16 15 15 16 18 18 17 17 16 17 17 17 17 17 17 16 16 16 16 16 16 17 17 17 17 18 18 18 18 17 17 17 17 17 18 19 19 20 20 20 20 21
Wind_Direction
78 79 74 66 63 62 59 48 38 32 32 33 30 27 30 32 39 46 57 64 72 85 84 84 85 81 63 150 197 183 178 182 191 188 182 184 185 178 181 178 191 185 170 168 125 75 47 33 13
80 79 69 63 59 53 45 40 32 27 23 27 31 34 33 31 41 54 63 72 78 81 75 77 76 71 72 104 126 151 169 174 186 180 181 177 184 180 176 176 188 194 215 199 188 20 333 316 305
83 79 66 60 46 46 41 38 33 30 27 27 29 32 34 38 45 53 68 75 80 75 69 72 85 84 79 89 106 124 149 169 187 191 188 175 171 173 169 167 182 198 237 239 232 240 291 293 278
83 73 67 58 41 42 43 33 31 25 33 29 28 32 37 41 44 53 65 78 82 76 69 73 89 88 80 97 114 129 140 145 160 189 188 177 163 159 171 184 203 220 229 252 286 322 285 277 283
78 67 61 39 44 36 38 30 26 25 31 32 29 28 34 36 43 52 54 58 72 74 73 79 83 88 93 90 101 107 103 103 81 130 143 176 143 72 235 236 271 292 306 327 344 343 333 310 281
74 68 55 37 47 39 28 29 22 21 27 30 26 25 27 32 40 46 48 51 61 78 80 77 81 93 91 86 81 75 71 62 58 73 73 180 339 3 345 302 307 318 317 329 349 323 339 352 348
74 65 52 47 41 39 26 25 22 12 18 25 29 28 27 29 41 47 51 54 59 79 82 84 82 85 86 85 82 71 59 53 62 64 52 15 4 354 342 326 325 335 334 334 339 330 339 357 352
93 66 55 41 43 37 30 22 22 21 20 24 31 30 29 34 44 49 55 57 58 69 69 73 72 65 70 67 61 58 46 41 51 41 29 16 8 349 333 331 338 338 337 335 332 337 336 321 328
95 74 60 42 45 34 27 23 22 29 24 27 30 29 30 37 46 49 54 56 59 59 64 63 61 64 64 66 64 44 36 35 35 25 19 24 16 6 358 354 353 346 341 342 337 337 337 334 326
93 79 72 60 42 38 29 29 27 28 26 24 30 29 30 36 40 46 49 54 52 49 48 55 58 55 57 57 41 28 35 34 27 21 21 13 20 23 18 5 359 352 347 344 345 330 336 344 334
90 70 63 55 43 40 28 29 25 23 25 22 25 26 27 34 38 43 41 45 47 48 43 45 50 38 36 36 30 23 27 25 23 16 16 16 19 21 15 6 3 2 354 344 344 336 331 329 317
77 59 57 45 36 37 25 25 22 25 25 21 22 29 31 31 35 38 38 31 34 39 40 41 38 29 28 23 18 21 18 17 15 8 9 19 19 15 14 6 2 2 358 349 342 338 342 342 335
82 35 39 34 23 22 19 25 17 18 23 30 31 32 36 37 40 43 41 33 30 34 36 35 30 26 26 19 16 14 14 13 13 9 8 12 13 15 12 360 1 5 2 357 355 344 350 350 351
106 60 43 19 24 25 16 21 20 21 27 30 31 37 37 34 38 38 39 35 33 32 30 25 23 23 22 19 13 12 11 5 3 3 358 1 0 1 356 358 354 353 349 352 353 351 356 352 348
113 56 53 38 17 8 3 18 16 17 25 26 25 26 31 31 33 36 36 34 32 32 28 23 21 19 18 12 7 8 5 2 359 353 351 352 354 355 352 349 346 345 343 348 345 344 341 340 349
109 331 357 27 354 339 351 11 11 358 7 14 17 18 23 30 33 35 35 34 32 33 28 20 14 12 14 10 6 359 354 352 350 352 350 349 350 348 347 350 352 355 356 352 353 349 346 347 348
68 296 321 352 340 325 338 354 355 345 353 2 5 8 14 20 25 28 30 30 28 27 24 18 14 9 8 3 358 354 354 353 352 351 353 351 349 349 346 346 351 356 357 353 355 353 345 338 338
271 276 287 297 314 308 315 325 337 330 340 348 346 352 4 12 16 19 22 22 20 17 13 11 11 5 360 356 353 351 351 353 351 351 349 347 346 346 343 345 348 351 353 354 351 342 336 334 333
258 269 284 290 278 284 299 307 313 323 321 332 336 342 352 5 6 11 12 11 11 7 3 359 0 358 353 348 345 346 349 351 350 347 344 345 346 347 348 347 346 347 350 347 344 339 336 335 333
240 257 264 283 277 275 287 297 303 308 309 318 325 325 333 344 353 353 354 356 357 356 356 353 352 349 348 346 345 346 348 347 347 347 347 347 345 346 349 349 349 348 345 344 342 336 334 333 332
239 255 264 264 269 273 282 291 293 301 304 310 309 316 314 326 333 341 340 341 343 345 348 346 344 346 351 350 349 349 346 342 343 345 345 346 343 346 348 346 343 342 340 337 335 334 333 330 329
239 250 257 262 267 278 279 285 291 297 303 306 304 314 312 315 318 324 330 331 330 333 338 340 339 341 346 347 345 343 338 335 335 337 340 345 348 349 347 341 337 336 333 331 330 330 330 328 326
235 245 250 254 256 266 269 271 282 290 295 304 302 304 311 312 313 315 317 319 319 322 329 331 332 336 339 340 340 337 336 333 333 334 335 334 336 338 335 331 332 330 327 327 327 328 326 324 322
241 251 253 257 259 262 265 268 267 277 291 296 296 296 298 304 305 307 310 309 311 312 319 321 324 327 330 332 335 336 335 331 328 327 325 326 326 325 324 323 323 324 323 322 325 327 327 326 322
237 245 253 260 264 269 270 266 271 275 278 281 286 289 288 293 297 301 303 306 307 309 314 317 321 320 325 327 329 329 327 326 323 319 319 321 322 320 318 318 319 320 320 320 320 321 322 322 321
237 241 250 263 272 276 278 268 265 271 271 270 270 275 280 287 292 294 298 300 301 302 307 312 316 314 317 319 320 322 323 321 317 314 315 319 320 319 316 315 314 315 315 316 317 318 318 318 316
239 240 245 256 260 268 271 271 272 274 273 276 276 275 279 283 285 287 290 294 297 298 301 303 306 307 308 309 311 314 315 315 314 315 317 315 316 316 315 314 311 312 312 313 314 315 317 316 313
242 244 246 246 255 266 265 268 274 276 277 280 280 281 280 278 280 282 285 288 292 292 294 297 300 302 304 305 305 309 311 311 312 312 311 312 312 312 313 311 311 310 310 312 314 314 315 314 311
240 242 245 246 244 255 266 265 268 273 276 277 279 277 275 273 273 278 281 283 286 288 290 292 295 296 298 300 301 304 308 309 309 307 306 307 309 308 308 309 310 310 312 313 313 312 311 311 311
243 242 242 250 254 254 263 262 268 269 273 277 280 278 275 275 274 275 277 279 282 286 288 289 290 293 295 297 299 300 303 306 306 305 303 303 306 306 307 308 308 308 308 308 308 308 308 310 309
Height
5891 5891 5891 5891 5891 5890 5889 5889 5888 5886 5886 5885 5883 5883 5881 5881 5881 5882 5880 5878 5878 5877 5876 5877 5876 5875 5873 5871 5870 5871 5873 5875 5877 5879 5880 5881 5882 5882 5883 5884 5884 5885 5885 5885 5886 5886 5887 5887 5887
5894 5894 5893 5892 5892 5892 5892 5891 5890 5888 5887 5886 5885 5884 5883 5881 5881 5880 5880 5880 5879 5877 5878 5877 5877 5875 5873 5871 5870 5870 5872 5875 5877 5879 5880 5881 5882 5883 5883 5884 5884 5885 5885 5886 5886 5887 5887 5887 5887
5896 5895 5895 5895 5895 5894 5894 5893 5891 5890 5889 5887 5886 5885 5884 5883 5882 5881 5881 5881 5880 5880 5879 5879 5878 5877 5875 5873 5872 5872 5873 5876 5878 5880 5881 5882 5883 5883 5884 5884 5885 5885 5885 5886 5886 5887 5887 5887 5887
5898 5896 5897 5899 5897 5896 5896 5895 5893 5892 5891 5889 5888 5887 5885 5884 5883 5883 5882 5882 5882 5881 5881 5880 5880 5879 5878 5876 5875 5876 5877 5878 5880 5881 5882 5882 5883 5884 5884 5885 5885 5886 5886 5886 5886 5886 5886 5886 5886
5899 5898 5899 5900 5898 5898 5898 5897 5895 5894 5892 5891 5890 5888 5887 5886 5885 5884 5883 5883 5883 5883 5882 5881 5881 5881 5880 5879 5879 5879 5880 5881 5881 5882 5882 5883 5884 5884 5885 5885 5885 5886 5886 5886 5886 5886 5886 5886 5885
5901 5899 5902 5902 5901 5900 5900 5899 5897 5895 5894 5893 5891 5890 5888 5887 5886 5885 5885 5884 5884 5884 5883 5883 5883 5883 5882 5882 5882 5882 5882 5882 5882 5882 5883 5883 5883 5884 5885 5885 5885 5886 5886 5886 5886 5886 5885 5885 5885
5904 5903 5904 5904 5902 5902 5902 5900 5899 5897 5896 5894 5893 5891 5890 5888 5888 5887 5886 5885 5885 5885 5885 5885 5885 5885 5884 5884 5884 5884 5884 5884 5884 5884 5884 5883 5884 5884 5884 5884 5885 5885 5885 5886 5886 5885 5885 5885 5885
5906 5906 5906 5906 5905 5905 5904 5902 5900 5899 5897 5896 5894 5893 5891 5890 5889 5888 5887 5887 5886 5886 5886 5886 5886 5886 5886 5886 5886 5886 5886 5886 5885 5885 5884 5884 5883 5883 5884 5884 5884 5885 5885 5885 5885 5885 5885 5885 5885
5908 5910 5908 5908 5907 5906 5905 5903 5902 5900 5898 5897 5896 5894 5893 5892 5891 5890 5889 5889 5888 5888 5888 5887 5887 5887 5887 5887 5887 5887 5887 5887 5886 5886 5885 5885 5884 5883 5883 5884 5884 5884 5884 5884 5884 5884 5884 5884 5885
5910 5910 5910 5910 5909 5908 5907 5905 5903 5902 5900 5899 5898 5896 5894 5893 5892 5891 5891 5890 5890 5890 5889 5889 5889 5889 5889 5889 5889 5889 5889 5888 5888 5887 5886 5885 5885 5884 5884 5884 5884 5884 5884 5884 5884 5883 5883 5884 5884
5911 5911 5911 5910 5910 5909 5908 5907 5905 5903 5902 5901 5899 5898 5896 5895 5894 5893 5893 5892 5891 5891 5891 5890 5890 5890 5890 5890 5890 5890 5890 5889 5888 5888 5887 5886 5885 5885 5884 5884 5885 5885 5885 5884 5884 5883 5883 5883 5883
5913 5913 5913 5913 5912 5911 5910 5909 5907 5905 5904 5902 5901 5899 5898 5896 5895 5895 5894 5894 5893 5893 5892 5892 5892 5892 5891 5891 5891 5891 5891 5890 5889 5889 5888 5887 5886 5886 5885 5885 5885 5885 5884 5884 5884 5884 5883 5883 5883
5915 5915 5914 5914 5913 5912 5911 5910 5908 5907 5905 5904 5902 5901 5899 5898 5897 5896 5896 5895 5895 5894 5894 5894 5893 5893 5893 5892 5892 5892 5892 5891 5890 5889 5889 5888 5887 5887 5886 5885 5885 5885 5885 5884 5884 5883 5883 5883 5883
5916 5916 5915 5915 5914 5914 5913 5911 5910 5909 5907 5905 5904 5902 5901 5900 5899 5898 5897 5897 5896 5896 5895 5895 5895 5894 5894 5894 5893 5893 5893 5892 5891 5891 5890 5889 5888 5887 5887 5886 5886 5885 5885 5884 5883 5883 5883 5883 5882
5916 5916 5916 5916 5916 5915 5914 5913 5912 5910 5909 5907 5906 5904 5903 5902 5901 5900 5899 5899 5898 5897 5897 5896 5896 5896 5895 5895 5894 5894 5893 5893 5892 5891 5890 5889 5889 5888 5887 5887 5886 5885 5884 5884 5883 5882 5883 5882 5882
5916 5916 5916 5917 5917 5917 5916 5914 5912 5911 5910 5908 5907 5906 5905 5904 5903 5902 5901 5900 5899 5899 5898 5898 5897 5896 5896 5896 5895 5894 5894 5893 5893 5892 5891 5890 5889 5888 5888 5887 5886 5885 5884 5883 5883 5883 5882 5882 5881
5916 5917 5918 5919 5918 5918 5917 5915 5914 5912 5911 5909 5908 5907 5906 5905 5904 5903 5902 5901 5901 5900 5899 5898 5898 5897 5897 5896 5895 5895 5894 5893 5893 5892 5891 5890 5889 5888 5888 5887 5886 5885 5884 5883 5883 5883 5882 5882 5881
5918 5918 5919 5919 5919 5919 5918 5917 5915 5913 5912 5911 5909 5908 5907 5906 5906 5904 5903 5903 5902 5901 5901 5900 5899 5898 5897 5897 5896 5895 5895 5894 5893 5892 5891 5890 5889 5888 5887 5887 5886 5885 5884 5884 5883 5882 5882 5881 5881
5918 5919 5919 5919 5919 5920 5919 5917 5915 5914 5913 5911 5910 5909 5908 5908 5907 5906 5905 5904 5903 5902 5901 5901 5899 5899 5898 5897 5896 5895 5895 5894 5893 5892 5890 5889 5889 5888 5887 5886 5885 5885 5884 5883 5883 5882 5881 5881 5880
5918 5919 5919 5919 5919 5919 5918 5917 5915 5915 5913 5911 5911 5910 5909 5908 5908 5907 5906 5905 5904 5903 5902 5901 5900 5899 5898 5896 5896 5895 5894 5894 5893 5892 5890 5889 5888 5888 5887 5886 5885 5885 5884 5883 5882 5882 5881 5880 5879
5917 5917 5917 5918 5917 5917 5917 5917 5914 5912 5912 5911 5910 5909 5908 5908 5908 5907 5906 5905 5904 5903 5902 5901 5900 5899 5898 5896 5895 5894 5894 5893 5892 5891 5890 5889 5888 5887 5887 5886 5885 5885 5884 5883 5882 5881 5880 5879 5878
5915 5916 5916 5916 5916 5915 5916 5916 5914 5912 5911 5910 5908 5909 5908 5907 5907 5906 5906 5905 5904 5903 5902 5901 5900 5899 5897 5896 5895 5894 5894 5893 5892 5891 5890 5889 5888 5887 5887 5886 5885 5884 5883 5882 5881 5879 5878 5877 5876
5912 5913 5913 5914 5914 5914 5914 5914 5913 5911 5910 5909 5907 5907 5907 5906 5906 5905 5905 5904 5903 5902 5901 5900 5899 5898 5897 5896 5895 5894 5893 5892 5891 5890 5889 5888 5888 5887 5886 5885 5884 5883 5882 5881 5879 5878 5876 5875 5874
5910 5911 5911 5912 5912 5912 5912 5913 5912 5909 5909 5908 5906 5907 5907 5906 5905 5904 5904 5903 5902 5901 5900 5900 5899 5898 5897 5896 5895 5894 5892 5891 5891 5889 5888 5887 5886 5885 5884 5883 5882 5881 5880 5878 5877 5876 5874 5873 5871
5907 5909 5910 5910 5909 5909 5909 5909 5910 5907 5907 5907 5906 5905 5905 5904 5904 5903 5902 5902 5901 5900 5899 5899 5898 5897 5896 5895 5894 5893 5892 5890 5889 5888 5887 5886 5884 5883 5882 5881 5880 5879 5877 5876 5875 5874 5872 5870 5869
5905 5907 5908 5909 5908 5908 5906 5906 5906 5905 5905 5904 5904 5904 5903 5903 5902 5902 5901 5900 5899 5898 5898 5897 5896 5895 5894 5894 5893 5891 5890 5889 5888 5886 5885 5883 5882 5881 5879 5878 5877 5876 5875 5874 5872 5871 5869 5867 5866
5901 5903 5905 5906 5905 5906 5905 5904 5903 5903 5902 5902 5902 5902 5902 5901 5900 5900 5899 5898 5897 5896 5896 5895 5894 5894 5893 5892 5891 5890 5888 5887 5886 5884 5882 5881 5880 5878 5877 5876 5875 5873 5872 5871 5869 5868 5866 5864 5863
5899 5900 5902 5903 5903 5903 5903 5902 5901 5901 5900 5899 5899 5899 5899 5899 5898 5897 5896 5896 5895 5894 5893 5893 5892 5891 5890 5889 5888 5887 5886 5885 5883 5882 5880 5878 5877 5875 5874 5873 5872 5870 5869 5868 5866 5864 5863 5861 5859
5894 5896 5897 5899 5900 5900 5900 5900 5898 5897 5897 5896 5896 5896 5896 5895 5895 5894 5894 5893 5892 5891 5891 5890 5889 5888 5888 5887 5886 5884 5883 5882 5880 5879 5877 5876 5874 5873 5871 5870 5868 5867 5866 5864 5862 5861 5859 5857 5855
5890 5892 5894 5896 5895 5896 5895 5897 5895 5892 5893 5893 5892 5892 5892 5892 5892 5891 5890 5890 5889 5888 5887 5887 5886 5885 5885 5884 5883 5881 5880 5879 5877 5876 5874 5872 5871 5869 5868 5866 5865 5863 5862 5860 5858 5856 5854 5852 5850